This is the latest recevied weather packets stored in our database for station/object KC1BRV. If no packets are shown the sender has not sent any weather packets the latest 10 day(s).
| Time | Temp. | Humidity | Pressure | Rain* | Wind** | Luminosity | Snow |
|---|---|---|---|---|---|---|---|
| 1777148830 | 10.56° C | 54% | 1018 hPa | 0 mm | - | 143 W/m² | - |
| 1777148528 | 11.11° C | 52% | 1017.9 hPa | 0 mm | - | 140 W/m² | - |
| 1777148223 | 10.56° C | 53% | 1017.9 hPa | 0 mm | - | 147 W/m² | - |
| 1777147919 | 11.11° C | 53% | 1017.9 hPa | 0 mm | - | 159 W/m² | - |
| 1777147616 | 10.56° C | 53% | 1017.8 hPa | 0 mm | - | 163 W/m² | - |
| 1777147311 | 11.11° C | 52% | 1017.9 hPa | 0 mm | - | 177 W/m² | - |
| 1777147006 | 11.11° C | 53% | 1018 hPa | 0 mm | - | 188 W/m² | - |
| 1777146703 | 11.11° C | 52% | 1017.7 hPa | 0 mm | - | 187 W/m² | - |
| 1777146403 | 11.67° C | 51% | 1018 hPa | 0 mm | - | 188 W/m² | - |
| 1777146100 | 11.67° C | 51% | 1017.7 hPa | 0 mm | - | 201 W/m² | - |
| 1777145796 | 11.67° C | 51% | 1017.9 hPa | 0 mm | - | 211 W/m² | - |
| 1777145493 | 11.67° C | 52% | 1017.8 hPa | 0 mm | - | 204 W/m² | - |
| 1777145193 | 11.67° C | 50% | 1017.9 hPa | 0 mm | - | 205 W/m² | - |
| 1777144888 | 12.22° C | 50% | 1017.7 hPa | 0 mm | - | 222 W/m² | - |
| 1777144588 | 12.22° C | 50% | 1017.6 hPa | 0 mm | - | 251 W/m² | - |
| 1777144284 | 12.78° C | 47% | 1017.7 hPa | 0 mm | - | 344 W/m² | - |
| 1777143980 | 12.78° C | 43% | 1017.7 hPa | 0 mm | - | 273 W/m² | - |
| 1777143676 | 12.22° C | 42% | 1017.9 hPa | 0 mm | - | 260 W/m² | - |
| 1777143373 | 12.22° C | 43% | 1017.8 hPa | 0 mm | - | 271 W/m² | - |
| 1777143069 | 12.78° C | 42% | 1017.8 hPa | 0 mm | - | 266 W/m² | - |
| 1777142764 | 12.22° C | 42% | 1017.9 hPa | 0 mm | - | 346 W/m² | - |
| 1777142461 | 12.22° C | 43% | 1017.8 hPa | 0 mm | - | 281 W/m² | - |
| 1777142161 | 12.22° C | 43% | 1018.3 hPa | 0 mm | - | 233 W/m² | - |
| 1777141857 | 12.22° C | 43% | 1018.3 hPa | 0 mm | - | 256 W/m² | - |
| 1777141554 | 12.22° C | 42% | 1018 hPa | 0 mm | - | 249 W/m² | - |
* Rain latest hour (hover to see other rain measurements)
** Current wind speed in m/s (hover to see current wind gust speed)